Find Starlink 37138

NORAD ID: 68308 Int'l Des: 2026-057 Owner: SPXS Country: US Constellation: starlink operational
LEOCIRCULARRETROGRADE

Live-Position

3D-Globus wird geladen...

Über Starlink 37138

Beschreibung wird geladen...

Nächste Überflüge

Passes for default location (London). Set your location on the main map for personalized predictions.

Höhenverlauf

Loading altitude history...

Zweizeiliger Elementsatz

1 68308U 26057Q 26125.61004179 .00311116 00000-0 20060-2 0 9992
2 68308 97.2858 250.8550 0002550 99.6033 260.5521 15.75255079 7243
Epoch: 5. Mai 2026 • Age: 10 hours

Aktueller Status

Höhe 371.4 km
Geschwindigkeit 7.68 km/s
Subsatellitenpunkt -71.84°S, 171.72°E
Startdatum 20. März 2026
Alter 0.1 years
Typ internet

Technische Details

Klassifizierung Payload
Masse 575.00 kg
Trockenmasse 530.00 kg
Gesamtmasse 575.00 kg
Länge 0.30 m
Durchmesser 4.10 m
Spannweite 29.00 m
Form Box + pan
Hersteller SPXS
Bus-Typ Starlink V2MO
Phasenstatus In Orbit
Besitzer/Staat SPXS/US

Most Searched